Regional Weather Roundup
Issued by NWS

Home | Current Version | Previous Version | Graphics & Text | Print | Product List | Glossary On
Versions: 1 2 3 4 5 6 7 8 9 10 11 12 13 14 15 16 17 18 19 20 21 22 23 24 25 26 27 28 29 30 31 32 33 34 35 36 37 38 39 40 41 42 43 44 45 46 47 48 49 50
000
ASUS43 KFSD 281210
RWRSD

WEATHER ROUNDUP FOR SOUTH DAKOTA
NATIONAL WEATHER SERVICE SIOUX FALLS SD
700 AM CDT WED JUN 28 2017

NOTE: "FAIR" INDICATES FEW OR NO CLOUDS BELOW 12,000 FEET WITH NO
SIGNIFICANT WEATHER AND/OR OBSTRUCTIONS TO VISIBILITY.


SDZ001>005-009-010-012>017-281300-
NORTHWEST AND NORTH CENTRAL SOUTH DAKOTA

CITY           SKY/WX    TMP DP  RH WIND       PRES   REMARKS
BUFFALO          N/A     55  52  89 NW10      29.73R
FAITH            N/A     62  56  80 NW10      29.71R
MOBRIDGE       CLOUDY    67  56  67 NW12G22   29.59R
$$

SDZ012>016-024>037-041>051-057-063-072>074-281300-
SOUTHWEST AND SOUTH CENTRAL SOUTH DAKOTA

CITY           SKY/WX    TMP DP  RH WIND       PRES   REMARKS
RAPID CTY ARPT CLEAR     58  50  75 NW10      29.79R
PIERRE         CLOUDY    65  58  78 W10       29.63R
CUSTER         CLEAR     54  43  66 NW5       29.89S
PHILIP         PTCLDY    62  57  83 W10       29.72R
PINE RIDGE     CLEAR     52  50  93 CALM      29.82R
SPEARFISH      FAIR      55  50  82 W8        29.85S
WINNER         PTSUNNY   66  57  72 W9        29.68R
$$

SDZ004>011-016>023-039-040-281300-
NORTHEAST SOUTH DAKOTA

CITY           SKY/WX    TMP DP  RH WIND       PRES   REMARKS
ABERDEEN       CLOUDY    66  60  81 W13       29.48R
WATERTOWN      LGT RAIN  64  60  87 S13       29.50R
BROOKINGS      LGT RAIN  65  61  87 S17G25    29.56R
SISSETON         N/A     66  65  96 S7        29.47R
$$

SDZ017-020-022-023-036>040-048>070-281300-
SOUTHEAST SOUTH DAKOTA

CITY           SKY/WX    TMP DP  RH WIND       PRES   REMARKS
SIOUX FALLS    CLOUDY    67  63  87 SW10      29.59S
HURON          CLOUDY    70  60  70 W18G25    29.52S
CHAMBERLAIN    CLOUDY    71  58  64 W12       29.64R
MITCHELL       MOCLDY    72  58  61 SW12      29.58R
YANKTON        CLOUDY    66  62  87 SE10      29.63S
$$

ABBREVIATIONS USED IN REMARKS
   TC - TEMPERATURE IN CELSIUS
  WCI - WIND CHILL INDEX
   HX - HEAT INDEX
  VSB - VISIBILITY





USA.gov is the U.S. government's official web portal to all federal, state and local government web resources and services.